Location: Hopville
(44.8032°N, 123.1329°W)
Time: 16:28:56
(UTC+00:00)

Cosmos 1814 Rocket - Pass Details

Date: 24 January 2021
Orbit: 744 x 787 km, 74.1° (Epoch: 01 March)

Event Time Altitude Azimuth Distance (km) Brightness Sun altitude
Exits shadow 13:29:03 - 198° (SSW) 3,042 7.0 -23.0°
Reaches altitude 10° 13:31:03 10° 198° (SSW) 2,257 6.3 -22.7°
Maximum altitude 13:36:10 87° 109° (ESE) 752 3.9 -21.8°
Drops below altitude 10° 13:41:18 10° 22° (NNE) 2,269 6.6 -20.9°
Sets 13:43:40 0° 22° (NNE) 3,199 7.4 -20.5°
